This demonstration page uses our WeatherBlox Daily Observations layout. Learn more.

Left ArrowRight Arrow

38.89511, -77.03637

Hourly Observations for July 28, 2015

Temp ( °F °C ) Dew Point ( °F °C ) Humidity (%) Winds ( mph kmh ) Pressure ( in mb ) Visibility ( mi km ) Precip ( " mm )
12:32 am 00:32 Partly Cloudy 79 26 73 23 84 84 SSW 7 11 30.03 1017 10 16 N/A
12:52 am 00:52 Partly Cloudy 78 25.6 72 22.2 82 82 S 5 7 30.01 1016 10 16 N/A
1:52 am 01:52 Partly Cloudy 77 25 72 22.2 85 85 SSW 6 9 30.01 1016 10 16 N/A
2:52 am 02:52 Mostly Cloudy 77 25 72 22.2 85 85 N N/A 30.01 1016 10 16 N/A
3:52 am 03:52 Mostly Cloudy 77 25 72 22.2 85 85 SSW 3 6 30.01 1016 10 16 N/A
4:52 am 04:52 Mostly Cloudy 77 25 72 22.2 85 85 N N/A 30.00 1016 10 16 N/A
5:52 am 05:52 Partly Cloudy 77 25 72 22.2 85 85 N N/A 30.00 1016 10 16 N/A
6:52 am 06:52 Partly Cloudy 78 25.6 72 22.2 82 82 N N/A 30.01 1016 10 16 N/A
7:52 am 07:52 Mostly Sunny 79 26.1 72 22.2 79 79 N N/A 30.01 1016 10 16 N/A
8:52 am 08:52 Mostly Sunny 82 27.8 73 22.8 74 74 N N/A 30.02 1017 10 16 N/A
9:52 am 09:52 Mostly Sunny 85 29.4 73 22.8 68 68 NE 5 7 30.02 1017 10 16 N/A
10:52 am 10:52 Partly Cloudy 87 30.6 73 22.8 63 63 NE 6 9 30.02 1017 10 16 N/A
11:52 am 11:52 Partly Cloudy 89 31.7 73 22.8 59 59 NE 3 6 30.01 1016 10 16 N/A
12:52 pm 12:52 Partly Cloudy 92 33.3 73 22.8 54 54 N N/A 30.00 1016 10 16 N/A
1:52 pm 13:52 Partly Cloudy 92 33.3 72 22.2 52 52 N N/A 29.97 1015 10 16 N/A
2:52 pm 14:52 Mostly Cloudy 92 33.3 73 22.8 54 54 SSE 5 7 29.96 1014 10 16 N/A
3:52 pm 15:52 Mostly Cloudy 93 33.9 74 23.3 54 54 S 7 11 29.96 1014 10 16 N/A
4:52 pm 16:52 Mostly Cloudy 90 32.2 73 22.8 58 58 ESE 12 19 29.96 1015 10 16 N/A
5:52 pm 17:52 Mostly Cloudy 90 32.2 74 23.3 59 59 SE 10 17 29.94 1014 10 16 N/A
6:10 pm 18:10 Mostly Cloudy 90 32 75 24 63 63 SE 14 22 29.94 1014 10 16 N/A
6:20 pm 18:20 Mostly Cloudy with Thunderstorms 88 31 72 22 59 59 SSE 17 28 29.97 1015 10 16 N/A
6:52 pm 18:52 Mostly Cloudy 83 28.3 74 23.3 74 74 S 16 26 29.97 1015 10 16 N/A
7:52 pm 19:52 Mostly Cloudy 81 27.2 72 22.2 74 74 SW 8 13 29.98 1015 10 16 N/A
8:52 pm 20:52 Partly Cloudy 81 27.2 73 22.8 77 77 SW 7 11 30.00 1016 10 16 N/A
9:52 pm 21:52 Partly Cloudy 81 27.2 74 23.3 79 79 SSW 6 9 30.00 1016 10 16 N/A
10:52 pm 22:52 Partly Cloudy 81 27.2 74 23.3 79 79 SW 3 6 30.01 1016 10 16 N/A
11:52 pm 23:52 Partly Cloudy 81 27.2 74 23.3 79 79 N N/A 30.00 1016 10 16 N/A

Powered by AerisWeather